Lid_Strength_Index
4 3 4 4 4 4 4 4 4 4 4 3 3 3 3 3 3 5 7 5 3 0 1 5 5 6 7 8 8 8 12 14 14 13 12 9 10 8 7 8 7 6 6 5 4
4 4 4 4 4 4 4 4 4 4 4 3 3 3 3 3 5 6 2 2 1 1 5 6 7 7 8 9 9 9 12 13 11 10 11 9 9 9 9 9 8 7 6 5 4
4 4 4 4 4 4 4 4 4 4 3 3 3 3 3 3 7 6 1 1 1 2 4 5 7 8 9 8 9 11 12 11 10 9 8 10 9 8 9 10 8 8 7 5 5
4 3 4 4 4 4 4 4 4 3 3 3 3 3 2 5 11 5 -0 0 1 2 5 7 8 9 10 11 10 11 9 9 8 8 9 9 9 9 8 8 6 6 6 5 5
3 3 4 4 4 4 4 4 4 4 4 3 3 2 4 7 7 3 -1 0 2 4 6 7 8 9 11 10 9 9 8 7 7 7 7 8 9 9 9 7 6 5 5 5 5
3 3 4 4 4 4 3 4 4 4 4 3 2 2 6 9 4 2 2 3 4 5 6 6 7 7 9 8 9 7 8 7 7 6 7 8 7 8 8 6 7 6 6 5 5
3 3 4 4 4 3 3 3 4 4 3 3 2 4 6 6 3 3 2 3 4 4 6 6 6 7 6 7 7 7 9 7 7 8 8 6 8 8 6 6 6 6 6 6 5
3 3 4 4 4 4 3 4 4 4 3 3 2 4 7 4 3 3 3 3 3 4 4 4 5 6 7 6 7 8 9 11 8 7 6 7 10 6 5 6 6 7 6 6 5
3 4 4 4 4 4 4 4 4 3 3 2 4 5 8 3 5 3 3 5 5 5 5 4 5 6 7 8 10 9 12 11 10 7 8 8 10 7 5 5 6 5 5 6 6
3 4 4 4 4 4 4 4 3 3 3 3 4 8 6 7 5 4 4 4 6 6 6 5 6 7 7 9 14 13 13 11 12 8 8 9 9 7 6 5 6 5 5 5 6
3 4 4 4 4 4 5 5 6 6 5 7 7 7 7 5 4 5 4 5 6 6 8 6 9 11 9 9 9 10 11 12 10 8 9 10 9 8 6 6 6 6 5 5 5
3 4 4 4 4 4 5 5 5 5 7 6 6 6 6 5 7 6 3 6 7 9 7 9 11 8 7 8 9 10 11 12 9 8 9 10 10 8 7 7 6 6 5 5 4
4 4 4 4 5 5 6 6 4 4 7 7 6 8 7 7 8 8 6 6 8 9 8 11 9 7 8 9 10 10 12 11 12 9 9 10 12 10 7 6 6 5 5 4 4
4 4 4 5 6 6 7 5 5 4 11 11 9 8 7 7 9 6 5 6 7 9 9 9 7 8 9 10 10 13 9 10 11 13 16 10 19 12 9 8 7 6 5 5 4
4 4 4 5 6 6 6 5 5 4 16 10 9 6 7 9 8 8 5 6 9 8 9 10 9 9 11 10 9 11 8 10 11 13 14 14 17 12 9 10 9 7 6 5 5
4 4 5 5 6 5 5 4 5 12 16 11 9 10 10 9 9 8 8 6 6 9 8 8 7 8 9 8 8 7 10 11 11 13 19 14 15 14 11 10 9 7 6 5 5
4 5 5 5 6 5 5 5 11 14 11 12 12 10 11 11 10 10 11 10 10 13 12 10 9 8 7 9 8 9 13 19 18 18 18 14 17 13 9 8 8 8 7 5 4
5 6 5 4 5 5 6 8 14 13 13 10 10 11 12 11 11 10 11 11 9 10 12 14 14 9 7 9 11 11 13 19 23 20 18 13 18 15 8 7 7 6 6 5 4
6 5 4 5 6 6 6 12 13 12 11 11 11 13 13 11 11 11 11 11 9 8 13 14 14 8 7 7 8 11 14 11 17 16 19 15 14 11 8 8 8 8 7 6 5
7 6 5 5 5 5 8 12 11 10 9 10 14 12 13 12 12 11 12 10 9 8 7 11 16 9 8 7 8 10 9 17 16 22 22 17 18 17 13 11 9 9 8 7 5
6 8 5 6 5 8 12 12 11 8 8 10 11 12 11 12 12 12 12 10 8 8 7 9 12 12 9 10 11 11 14 14 14 16 21 21 19 12 12 11 11 9 8 7 6
7 9 5 5 9 11 11 11 9 8 8 9 9 9 11 11 12 12 11 10 7 8 10 8 11 15 12 8 8 9 12 13 18 19 17 18 18 10 10 9 9 9 8 6 5
8 8 5 4 11 11 10 10 8 9 9 9 10 9 9 11 13 11 10 8 8 8 9 9 12 16 13 10 8 10 10 11 12 13 18 20 18 9 9 9 8 9 8 6 6
8 10 8 8 9 10 10 10 10 8 9 8 9 9 9 11 10 11 10 9 8 8 6 7 12 14 18 14 11 13 11 11 12 17 16 17 15 12 11 10 9 8 7 6 6
8 10 10 11 9 9 9 10 10 10 8 8 9 9 10 12 12 12 11 10 10 8 7 9 13 12 11 11 10 11 12 11 13 14 17 14 14 12 11 10 9 8 7 7 7
8 9 7 8 9 9 9 10 10 9 9 9 10 9 9 11 11 12 11 12 12 8 9 8 13 12 12 10 10 13 11 11 11 12 13 12 13 9 9 8 9 10 9 8 7
7 6 7 9 9 9 9 9 10 8 8 8 8 9 10 9 8 8 9 9 10 10 10 10 12 14 15 11 12 16 12 11 11 11 12 15 12 9 10 9 10 10 9 8 7